date,time,press
2015-08-01,00:00,1045.22
2015-08-01,01:00,1047.39
2015-08-01,02:00,1048.48
2015-08-01,03:00,1046.31
2015-08-01,04:00,1047.39
2015-08-01,05:00,1048.48
2015-08-01,06:00,1050.65
2015-08-01,07:00,1050.65
2015-08-01,08:00,1058.24
2015-08-01,09:00,1056.07
2015-08-01,10:00,1041.96
2015-08-01,11:00,1043.05
2015-08-01,12:00,1021.35
2015-08-01,13:00,1014.84
2015-08-01,14:00,1025.69
2015-08-01,15:00,1032.2
2015-08-01,16:00,1027.86
2015-08-01,17:00,1034.37
2015-08-01,18:00,1081.03
2015-08-01,19:00,1051.73
2015-08-01,20:00,1050.65
2015-08-01,21:00,1050.65
2015-08-01,22:00,1051.73
2015-08-01,23:00,1052.82
2015-08-02,00:00,1051.73
2015-08-02,01:00,1058.24
2015-08-02,02:00,1058.24
2015-08-02,03:00,1060.41
2015-08-02,04:00,1062.58
2015-08-02,05:00,1064.75
2015-08-02,06:00,1073.43
2015-08-02,07:00,1073.43
2015-08-02,08:00,1054.99
2015-08-02,09:00,1068.01
2015-08-02,10:00,1066.92
2015-08-02,11:00,1053.9
2015-08-02,12:00,1054.99
2015-08-02,13:00,1065.84
2015-08-02,14:00,1065.84
2015-08-02,15:00,1066.92
2015-08-02,16:00,1063.67
2015-08-02,17:00,1074.52
2015-08-02,18:00,1076.69
2015-08-02,19:00,1081.03
2015-08-02,20:00,1066.92
2015-08-02,21:00,1057.16
2015-08-02,22:00,1062.58
2015-08-02,23:00,1063.67
2015-08-03,00:00,1071.26
2015-08-03,01:00,1073.43
2015-08-03,02:00,1073.43
2015-08-03,03:00,1076.69
2015-08-03,04:00,1076.69
2015-08-03,05:00,1084.28
2015-08-03,06:00,1086.45
2015-08-03,07:00,1088.62
2015-08-03,08:00,1087.54
2015-08-03,09:00,1085.37
2015-08-03,10:00,1088.62
2015-08-03,11:00,1112.49
2015-08-03,12:00,1091.88
2015-08-03,13:00,1088.62
2015-08-03,14:00,1111.41
2015-08-03,15:00,1102.73
2015-08-03,16:00,1086.45
2015-08-03,17:00,1089.71
2015-08-03,18:00,1103.81
2015-08-03,19:00,1124.43
2015-08-03,20:00,1123.35
2015-08-03,21:00,-999
2015-08-03,22:00,1101.64
2015-08-03,23:00,1087.54
2015-08-04,00:00,1096.22
2015-08-04,01:00,1089.71
2015-08-04,02:00,1094.05
2015-08-04,03:00,1101.64
2015-08-04,04:00,1105.98
2015-08-04,05:00,1086.45
2015-08-04,06:00,1095.13
2015-08-04,07:00,1097.3
2015-08-04,08:00,1097.3
2015-08-04,09:00,1097.3
2015-08-04,10:00,1087.54
2015-08-04,11:00,1056.07
2015-08-04,12:00,1039.79
2015-08-04,13:00,1081.03
2015-08-04,14:00,1066.92
2015-08-04,15:00,1074.52
2015-08-04,16:00,1110.32
2015-08-04,17:00,1107.07
2015-08-04,18:00,1114.66
2015-08-04,19:00,1128.77
2015-08-04,20:00,1097.3
2015-08-04,21:00,1105.98
2015-08-04,22:00,1113.58
2015-08-04,23:00,1114.66
2015-08-05,00:00,1116.83
2015-08-05,01:00,1119
2015-08-05,02:00,1119
2015-08-05,03:00,1126.6
2015-08-05,04:00,1128.77
2015-08-05,05:00,1130.94
2015-08-05,06:00,1132.03
2015-08-05,07:00,1119
2015-08-05,08:00,1113.58
2015-08-05,09:00,1111.41
2015-08-05,10:00,1070.18
2015-08-05,11:00,1085.37
2015-08-05,12:00,1076.69
2015-08-05,13:00,1063.67
2015-08-05,14:00,1092.96
2015-08-05,15:00,1061.5
2015-08-05,16:00,1099.47
2015-08-05,17:00,1038.71
2015-08-05,18:00,1060.41
2015-08-05,19:00,1085.37
2015-08-05,20:00,1089.71
2015-08-05,21:00,1104.9
2015-08-05,22:00,1104.9
2015-08-05,23:00,1113.58
2015-08-06,00:00,1111.41
2015-08-06,01:00,1108.15
2015-08-06,02:00,1109.24
2015-08-06,03:00,1110.32
2015-08-06,04:00,1120.09
2015-08-06,05:00,1120.09
2015-08-06,06:00,1121.18
2015-08-06,07:00,1114.66
2015-08-06,08:00,1098.39
2015-08-06,09:00,1072.35
2015-08-06,10:00,1068.01
2015-08-06,11:00,1025.69
2015-08-06,12:00,1039.79
2015-08-06,13:00,1022.43
2015-08-06,14:00,1072.35
2015-08-06,15:00,1056.07
2015-08-06,16:00,1031.11
2015-08-06,17:00,1056.07
2015-08-06,18:00,1094.05
2015-08-06,19:00,1103.81
2015-08-06,20:00,1111.41
2015-08-06,21:00,1111.41
2015-08-06,22:00,1107.07
2015-08-06,23:00,1113.58
2015-08-07,00:00,1086.45
2015-08-07,01:00,1082.11
2015-08-07,02:00,1088.62
2015-08-07,03:00,1095.13
2015-08-07,04:00,1099.47
2015-08-07,05:00,1100.56
2015-08-07,06:00,1096.22
2015-08-07,07:00,1099.47
2015-08-07,08:00,1103.81
2015-08-07,09:00,1071.26
2015-08-07,10:00,1054.99
2015-08-07,11:00,1015.92
2015-08-07,12:00,990.97
2015-08-07,13:00,981.2
2015-08-07,14:00,1039.79
2015-08-07,15:00,1039.79
2015-08-07,16:00,973.61
2015-08-07,17:00,1040.88
2015-08-07,18:00,1086.45
2015-08-07,19:00,1079.94
2015-08-07,20:00,1071.26
2015-08-07,21:00,1048.48
2015-08-07,22:00,1047.39
2015-08-07,23:00,1065.84
2015-08-08,00:00,1066.92
2015-08-08,01:00,1074.52
2015-08-08,02:00,1074.52
2015-08-08,03:00,1072.35
2015-08-08,04:00,1076.69
2015-08-08,05:00,1086.45
2015-08-08,06:00,1082.11
2015-08-08,07:00,1077.77
2015-08-08,08:00,1025.69
2015-08-08,09:00,1033.28
2015-08-08,10:00,1028.94
2015-08-08,11:00,1049.56
2015-08-08,12:00,1021.35
2015-08-08,13:00,977.95
2015-08-08,14:00,993.14
2015-08-08,15:00,975.78
2015-08-08,16:00,992.05
2015-08-08,17:00,1026.77
2015-08-08,18:00,1039.79
2015-08-08,19:00,1035.45
2015-08-08,20:00,1030.03
2015-08-08,21:00,1034.37
2015-08-08,22:00,1033.28
2015-08-08,23:00,1023.52
2015-08-09,00:00,1036.54
2015-08-09,01:00,1045.22
2015-08-09,02:00,1043.05
2015-08-09,03:00,1050.65
2015-08-09,04:00,1050.65
2015-08-09,05:00,1052.82
2015-08-09,06:00,1058.24
2015-08-09,07:00,1051.73
2015-08-09,08:00,1038.71
2015-08-09,09:00,1030.03
2015-08-09,10:00,997.48
2015-08-09,11:00,996.39
2015-08-09,12:00,949.73
2015-08-09,13:00,918.27
2015-08-09,14:00,925.86
2015-08-09,15:00,961.67
2015-08-09,16:00,996.39
2015-08-09,17:00,1019.18
2015-08-09,18:00,1030.03
2015-08-09,19:00,1044.14
2015-08-09,20:00,992.05
2015-08-09,21:00,1006.16
2015-08-09,22:00,995.31
2015-08-09,23:00,1005.07
2015-08-10,00:00,1011.58
2015-08-10,01:00,1005.07
2015-08-10,02:00,1010.5
2015-08-10,03:00,1012.67
2015-08-10,04:00,1030.03
2015-08-10,05:00,1039.79
2015-08-10,06:00,1040.88
2015-08-10,07:00,1030.03
2015-08-10,08:00,1010.5
2015-08-10,09:00,972.52
2015-08-10,10:00,951.9
2015-08-10,11:00,925.86
2015-08-10,12:00,919.35
2015-08-10,13:00,904.16
2015-08-10,14:00,910.67
2015-08-10,15:00,912.84
2015-08-10,16:00,936.71
2015-08-10,17:00,956.24
2015-08-10,18:00,993.14
2015-08-10,19:00,1019.18
2015-08-10,20:00,1026.77
2015-08-10,21:00,1037.62
2015-08-10,22:00,1045.22
2015-08-10,23:00,1039.79
2015-08-11,00:00,1041.96
2015-08-11,01:00,1013.75
2015-08-11,02:00,1020.26
2015-08-11,03:00,1024.6
2015-08-11,04:00,1023.52
2015-08-11,05:00,1021.35
2015-08-11,06:00,1023.52
2015-08-11,07:00,1027.86
2015-08-11,08:00,1022.43
2015-08-11,09:00,1015.92
2015-08-11,10:00,979.03
2015-08-11,11:00,964.93
2015-08-11,12:00,926.95
2015-08-11,13:00,906.33
2015-08-11,14:00,883.54
2015-08-11,15:00,893.31
2015-08-11,16:00,968.18
2015-08-11,17:00,1017.01
2015-08-11,18:00,1030.03
2015-08-11,19:00,1018.09
2015-08-11,20:00,1028.94
2015-08-11,21:00,1040.88
2015-08-11,22:00,1039.79
2015-08-11,23:00,1041.96
2015-08-12,00:00,1048.48
2015-08-12,01:00,1054.99
2015-08-12,02:00,1059.33
2015-08-12,03:00,1066.92
2015-08-12,04:00,1065.84
2015-08-12,05:00,1050.65
2015-08-12,06:00,1043.05
2015-08-12,07:00,1036.54
2015-08-12,08:00,1035.45
2015-08-12,09:00,1030.03
2015-08-12,10:00,1018.09
2015-08-12,11:00,990.97
2015-08-12,12:00,963.84
2015-08-12,13:00,939.97
2015-08-12,14:00,871.61
2015-08-12,15:00,861.84
2015-08-12,16:00,912.84
2015-08-12,17:00,968.18
2015-08-12,18:00,1001.82
2015-08-12,19:00,1032.2
2015-08-12,20:00,1037.62
2015-08-12,21:00,1046.31
2015-08-12,22:00,1049.56
2015-08-12,23:00,1050.65
2015-08-13,00:00,1048.48
2015-08-13,01:00,1041.96
2015-08-13,02:00,1051.73
2015-08-13,03:00,1054.99
2015-08-13,04:00,1061.5
2015-08-13,05:00,1001.82
2015-08-13,06:00,1035.45
2015-08-13,07:00,1049.56
2015-08-13,08:00,1049.56
2015-08-13,09:00,1021.35
2015-08-13,10:00,987.71
2015-08-13,11:00,997.48
2015-08-13,12:00,985.54
2015-08-13,13:00,996.39
2015-08-13,14:00,1035.45
2015-08-13,15:00,998.56
2015-08-13,16:00,1014.84
2015-08-13,17:00,1038.71
2015-08-13,18:00,1059.33
2015-08-13,19:00,1053.9
2015-08-13,20:00,1053.9
2015-08-13,21:00,1038.71
2015-08-13,22:00,1030.03
2015-08-13,23:00,1026.77
2015-08-14,00:00,1026.77
2015-08-14,01:00,1025.69
2015-08-14,02:00,1026.77
2015-08-14,03:00,1035.45
2015-08-14,04:00,1045.22
2015-08-14,05:00,1051.73
2015-08-14,06:00,1050.65
2015-08-14,07:00,1057.16
2015-08-14,08:00,1041.96
2015-08-14,09:00,995.31
2015-08-14,10:00,948.65
2015-08-14,11:00,-999
2015-08-14,12:00,-999
2015-08-14,13:00,855.33
2015-08-14,14:00,913.93
2015-08-14,15:00,-999
2015-08-14,16:00,900.91
2015-08-14,17:00,-999
2015-08-14,18:00,-999
2015-08-14,19:00,979.03
2015-08-14,20:00,1011.58
2015-08-14,21:00,1031.11
2015-08-14,22:00,1035.45
2015-08-14,23:00,1036.54
2015-08-15,00:00,1038.71
2015-08-15,01:00,1047.39
2015-08-15,02:00,1051.73
2015-08-15,03:00,1053.9
2015-08-15,04:00,1044.14
2015-08-15,05:00,1044.14
2015-08-15,06:00,1045.22
2015-08-15,07:00,1036.54
2015-08-15,08:00,1033.28
2015-08-15,09:00,1013.75
2015-08-15,10:00,975.78
2015-08-15,11:00,906.33
2015-08-15,12:00,864.01
2015-08-15,13:00,-999
2015-08-15,14:00,906.33
2015-08-15,15:00,934.54
2015-08-15,16:00,-999
2015-08-15,17:00,-999
2015-08-15,18:00,-999
2015-08-15,19:00,989.88
2015-08-15,20:00,1001.82
2015-08-15,21:00,1005.07
2015-08-15,22:00,1019.18
2015-08-15,23:00,1023.52
2015-08-16,00:00,1020.26
2015-08-16,01:00,1023.52
2015-08-16,02:00,1027.86
2015-08-16,03:00,1037.62
2015-08-16,04:00,1045.22
2015-08-16,05:00,1044.14
2015-08-16,06:00,1045.22
2015-08-16,07:00,1037.62
2015-08-16,08:00,1021.35
2015-08-16,09:00,993.14
2015-08-16,10:00,979.03
2015-08-16,11:00,915.01
2015-08-16,12:00,-999
2015-08-16,13:00,-999
2015-08-16,14:00,-999
2015-08-16,15:00,-999
2015-08-16,16:00,-999
2015-08-16,17:00,858.59
2015-08-16,18:00,900.91
2015-08-16,19:00,994.22
2015-08-16,20:00,963.84
2015-08-16,21:00,1019.18
2015-08-16,22:00,1022.43
2015-08-16,23:00,1030.03
2015-08-17,00:00,1035.45
2015-08-17,01:00,1037.62
2015-08-17,02:00,1037.62
2015-08-17,03:00,1032.2
2015-08-17,04:00,1027.86
2015-08-17,05:00,1031.11
2015-08-17,06:00,1027.86
2015-08-17,07:00,1018.09
2015-08-17,08:00,1005.07
2015-08-17,09:00,986.63
2015-08-17,10:00,960.58
2015-08-17,11:00,890.06
2015-08-17,12:00,879.2
2015-08-17,13:00,878.12
2015-08-17,14:00,856.42
2015-08-17,15:00,869.44
2015-08-17,16:00,853.16
2015-08-17,17:00,-999
2015-08-17,18:00,-999
2015-08-17,19:00,861.84
2015-08-17,20:00,982.29
2015-08-17,21:00,1007.24
2015-08-17,22:00,990.97
2015-08-17,23:00,1001.82
2015-08-18,00:00,994.22
2015-08-18,01:00,989.88
2015-08-18,02:00,988.8
2015-08-18,03:00,992.05
2015-08-18,04:00,988.8
2015-08-18,05:00,985.54
2015-08-18,06:00,990.97
2015-08-18,07:00,984.46
2015-08-18,08:00,975.78
2015-08-18,09:00,950.82
2015-08-18,10:00,925.86
2015-08-18,11:00,905.25
2015-08-18,12:00,874.86
2015-08-18,13:00,856.42
2015-08-18,14:00,862.93
2015-08-18,15:00,-999
2015-08-18,16:00,-999
2015-08-18,17:00,-999
2015-08-18,18:00,-999
2015-08-18,19:00,-999
2015-08-18,20:00,875.95
2015-08-18,21:00,879.2
2015-08-18,22:00,895.48
2015-08-18,23:00,917.18
2015-08-19,00:00,929.12
2015-08-19,01:00,954.07
2015-08-19,02:00,961.67
2015-08-19,03:00,967.1
2015-08-19,04:00,970.35
2015-08-19,05:00,973.61
2015-08-19,06:00,975.78
2015-08-19,07:00,975.78
2015-08-19,08:00,967.1
2015-08-19,09:00,949.73
2015-08-19,10:00,932.37
2015-08-19,11:00,894.4
2015-08-19,12:00,860.76
2015-08-19,13:00,-999
2015-08-19,14:00,-999
2015-08-19,15:00,-999
2015-08-19,16:00,-999
2015-08-19,17:00,907.42
2015-08-19,18:00,954.07
2015-08-19,19:00,929.12
2015-08-19,20:00,932.37
2015-08-19,21:00,936.71
2015-08-19,22:00,934.54
2015-08-19,23:00,958.41
2015-08-20,00:00,972.52
2015-08-20,01:00,972.52
2015-08-20,02:00,976.86
2015-08-20,03:00,981.2
2015-08-20,04:00,980.12
2015-08-20,05:00,983.37
2015-08-20,06:00,983.37
2015-08-20,07:00,982.29
2015-08-20,08:00,976.86
2015-08-20,09:00,938.88
2015-08-20,10:00,925.86
2015-08-20,11:00,860.76
2015-08-20,12:00,-999
2015-08-20,13:00,-999
2015-08-20,14:00,-999
2015-08-20,15:00,-999
2015-08-20,16:00,864.01
2015-08-20,17:00,956.24
2015-08-20,18:00,979.03
2015-08-20,19:00,1006.16
2015-08-20,20:00,998.56
2015-08-20,21:00,982.29
2015-08-20,22:00,976.86
2015-08-20,23:00,975.78
2015-08-21,00:00,976.86
2015-08-21,01:00,972.52
2015-08-21,02:00,969.27
2015-08-21,03:00,966.01
2015-08-21,04:00,961.67
2015-08-21,05:00,961.67
2015-08-21,06:00,964.93
2015-08-21,07:00,967.1
2015-08-21,08:00,941.05
2015-08-21,09:00,934.54
2015-08-21,10:00,954.07
2015-08-21,11:00,933.46
2015-08-21,12:00,909.59
2015-08-21,13:00,-999
2015-08-21,14:00,924.78
2015-08-21,15:00,990.97
2015-08-21,16:00,967.1
2015-08-21,17:00,963.84
2015-08-21,18:00,966.01
2015-08-21,19:00,935.63
2015-08-21,20:00,922.61
2015-08-21,21:00,916.1
2015-08-21,22:00,924.78
2015-08-21,23:00,928.03
2015-08-22,00:00,931.29
2015-08-22,01:00,934.54
2015-08-22,02:00,943.22
2015-08-22,03:00,946.48
2015-08-22,04:00,948.65
2015-08-22,05:00,957.33
2015-08-22,06:00,955.16
2015-08-22,07:00,952.99
2015-08-22,08:00,937.8
2015-08-22,09:00,917.18
2015-08-22,10:00,901.99
2015-08-22,11:00,886.8
2015-08-22,12:00,860.76
2015-08-22,13:00,862.93
2015-08-22,14:00,896.57
2015-08-22,15:00,896.57
2015-08-22,16:00,900.91
2015-08-22,17:00,904.16
2015-08-22,18:00,893.31
2015-08-22,19:00,912.84
2015-08-22,20:00,918.27
2015-08-22,21:00,916.1
2015-08-22,22:00,922.61
2015-08-22,23:00,921.52
2015-08-23,00:00,924.78
2015-08-23,01:00,926.95
2015-08-23,02:00,920.44
2015-08-23,03:00,921.52
2015-08-23,04:00,921.52
2015-08-23,05:00,928.03
2015-08-23,06:00,933.46
2015-08-23,07:00,935.63
2015-08-23,08:00,922.61
2015-08-23,09:00,899.82
2015-08-23,10:00,898.74
2015-08-23,11:00,887.89
2015-08-23,12:00,873.78
2015-08-23,13:00,867.27
2015-08-23,14:00,878.12
2015-08-23,15:00,875.95
2015-08-23,16:00,877.03
2015-08-23,17:00,873.78
2015-08-23,18:00,883.54
2015-08-23,19:00,879.2
2015-08-23,20:00,892.23
2015-08-23,21:00,913.93
2015-08-23,22:00,913.93
2015-08-23,23:00,926.95
2015-08-24,00:00,921.52
2015-08-24,01:00,924.78
2015-08-24,02:00,923.69
2015-08-24,03:00,925.86
2015-08-24,04:00,930.2
2015-08-24,05:00,928.03
2015-08-24,06:00,930.2
2015-08-24,07:00,923.69
2015-08-24,08:00,924.78
2015-08-24,09:00,915.01
2015-08-24,10:00,907.42
2015-08-24,11:00,900.91
2015-08-24,12:00,857.5
2015-08-24,13:00,879.2
2015-08-24,14:00,881.37
2015-08-24,15:00,872.69
2015-08-24,16:00,872.69
2015-08-24,17:00,869.44
2015-08-24,18:00,869.44
2015-08-24,19:00,918.27
2015-08-24,20:00,935.63
2015-08-24,21:00,949.73
2015-08-24,22:00,926.95
2015-08-24,23:00,919.35
2015-08-25,00:00,929.12
2015-08-25,01:00,924.78
2015-08-25,02:00,919.35
2015-08-25,03:00,936.71
2015-08-25,04:00,944.31
2015-08-25,05:00,939.97
2015-08-25,06:00,935.63
2015-08-25,07:00,948.65
2015-08-25,08:00,930.2
2015-08-25,09:00,920.44
2015-08-25,10:00,910.67
2015-08-25,11:00,893.31
2015-08-25,12:00,907.42
2015-08-25,13:00,-999
2015-08-25,14:00,906.33
2015-08-25,15:00,912.84
2015-08-25,16:00,880.29
2015-08-25,17:00,930.2
2015-08-25,18:00,933.46
2015-08-25,19:00,937.8
2015-08-25,20:00,935.63
2015-08-25,21:00,913.93
2015-08-25,22:00,900.91
2015-08-25,23:00,893.31
2015-08-26,00:00,903.08
2015-08-26,01:00,899.82
2015-08-26,02:00,894.4
2015-08-26,03:00,896.57
2015-08-26,04:00,899.82
2015-08-26,05:00,908.5
2015-08-26,06:00,911.76
2015-08-26,07:00,905.25
2015-08-26,08:00,901.99
2015-08-26,09:00,894.4
2015-08-26,10:00,874.86
2015-08-26,11:00,870.52
2015-08-26,12:00,878.12
2015-08-26,13:00,886.8
2015-08-26,14:00,885.71
2015-08-26,15:00,892.23
2015-08-26,16:00,907.42
2015-08-26,17:00,931.29
2015-08-26,18:00,890.06
2015-08-26,19:00,885.71
2015-08-26,20:00,893.31
2015-08-26,21:00,895.48
2015-08-26,22:00,894.4
2015-08-26,23:00,896.57
2015-08-27,00:00,901.99
2015-08-27,01:00,910.67
2015-08-27,02:00,905.25
2015-08-27,03:00,941.05
2015-08-27,04:00,951.9
2015-08-27,05:00,948.65
2015-08-27,06:00,948.65
2015-08-27,07:00,945.39
2015-08-27,08:00,928.03
2015-08-27,09:00,903.08
2015-08-27,10:00,883.54
2015-08-27,11:00,874.86
2015-08-27,12:00,850.99
2015-08-27,13:00,872.69
2015-08-27,14:00,877.03
2015-08-27,15:00,859.67
2015-08-27,16:00,862.93
2015-08-27,17:00,915.01
2015-08-27,18:00,974.69
2015-08-27,19:00,984.46
2015-08-27,20:00,975.78
2015-08-27,21:00,980.12
2015-08-27,22:00,986.63
2015-08-27,23:00,983.37
2015-08-28,00:00,986.63
2015-08-28,01:00,985.54
2015-08-28,02:00,985.54
2015-08-28,03:00,988.8
2015-08-28,04:00,977.95
2015-08-28,05:00,971.44
2015-08-28,06:00,969.27
2015-08-28,07:00,958.41
2015-08-28,08:00,949.73
2015-08-28,09:00,934.54
2015-08-28,10:00,921.52
2015-08-28,11:00,918.27
2015-08-28,12:00,907.42
2015-08-28,13:00,900.91
2015-08-28,14:00,899.82
2015-08-28,15:00,901.99
2015-08-28,16:00,895.48
2015-08-28,17:00,910.67
2015-08-28,18:00,931.29
2015-08-28,19:00,976.86
2015-08-28,20:00,980.12
2015-08-28,21:00,972.52
2015-08-28,22:00,967.1
2015-08-28,23:00,958.41
2015-08-29,00:00,950.82
2015-08-29,01:00,950.82
2015-08-29,02:00,942.14
2015-08-29,03:00,941.05
2015-08-29,04:00,928.03
2015-08-29,05:00,922.61
2015-08-29,06:00,933.46
2015-08-29,07:00,933.46
2015-08-29,08:00,921.52
2015-08-29,09:00,906.33
2015-08-29,10:00,899.82
2015-08-29,11:00,891.14
2015-08-29,12:00,860.76
2015-08-29,13:00,853.16
2015-08-29,14:00,865.1
2015-08-29,15:00,852.08
2015-08-29,16:00,896.57
2015-08-29,17:00,906.33
2015-08-29,18:00,925.86
2015-08-29,19:00,938.88
2015-08-29,20:00,956.24
2015-08-29,21:00,959.5
2015-08-29,22:00,971.44
2015-08-29,23:00,954.07
2015-08-30,00:00,936.71
2015-08-30,01:00,931.29
2015-08-30,02:00,934.54
2015-08-30,03:00,937.8
2015-08-30,04:00,936.71
2015-08-30,05:00,936.71
2015-08-30,06:00,936.71
2015-08-30,07:00,934.54
2015-08-30,08:00,892.23
2015-08-30,09:00,896.57
2015-08-30,10:00,869.44
2015-08-30,11:00,867.27
2015-08-30,12:00,-999
2015-08-30,13:00,-999
2015-08-30,14:00,-999
2015-08-30,15:00,-999
2015-08-30,16:00,873.78
2015-08-30,17:00,888.97
2015-08-30,18:00,931.29
2015-08-30,19:00,-999
2015-08-30,20:00,960.58
2015-08-30,21:00,973.61
2015-08-30,22:00,976.86
2015-08-30,23:00,973.61
2015-08-31,00:00,946.48
2015-08-31,01:00,924.78
2015-08-31,02:00,917.18
2015-08-31,03:00,917.18
2015-08-31,04:00,916.1
2015-08-31,05:00,924.78
2015-08-31,06:00,928.03
2015-08-31,07:00,924.78
2015-08-31,08:00,906.33
2015-08-31,09:00,905.25
2015-08-31,10:00,892.23
2015-08-31,11:00,877.03
2015-08-31,12:00,870.52
2015-08-31,13:00,868.35
2015-08-31,14:00,878.12
2015-08-31,15:00,870.52
2015-08-31,16:00,886.8
2015-08-31,17:00,899.82
2015-08-31,18:00,922.61
2015-08-31,19:00,930.2
2015-08-31,20:00,954.07
2015-08-31,21:00,957.33
2015-08-31,22:00,985.54
2015-08-31,23:00,985.54
